User: anonymous   Login
Location: Unspecified
(0.0000°N, 0.0000°E)
Time: 19:31:57
(UTC+01:00)
Language:

Cosmos 1892 Rocket - Orbit

View from above orbital plane
View from above orbital plane
View from above satellite
View from above satellite

Ground track
Ground track

The orbit data is extracted from the following two-line orbital elements,

1 18422U 87088B   15029.33890696  .00000328  00000-0  37621-4 0  4697
2 18422 082.5110 271.8125 0020994 066.5837 053.8948 14.82600535472915
Epoch (UTC): 29 January 2015 08:08:01
Eccentricity: 0.0020994
inclination: 82.5110°
perigee height: 606 km
apogee height: 636 km
right ascension of ascending node: 271.8125°
argument of perigee: 66.5837°
revolutions per day: 14.82600535
mean anomaly at epoch: 53.8948°
orbit number at epoch: 47291

The dashed part of the orbit path shows where the satellite is in the earth's shadow,  

DLR